Location: Joplin, MO
(37.0842°N, 94.5133°W)
Time: 22:03:29
(UTC+02:00)

Courier 1B Rocket - Pass Details

Date: 06 April 2023
Orbit: 920 x 1202 km, 28.2° (Epoch: 05 June)

Event Time Altitude Azimuth Distance (km) Brightness Sun altitude
Rises 22:17:07 0° 223° (SW) 4,046 8.9 49.6°
Reaches altitude 10° 22:20:27 10° 211° (SSW) 3,107 8.5 49.1°
Maximum altitude 22:26:36 26° 159° (SSE) 2,166 7.3 48.1°
Drops below altitude 10° 22:32:45 10° 106° (ESE) 3,114 7.5 47.2°
Sets 22:36:05 0° 95° (E) 4,058 7.9 46.6°
